Showing default

XINGCHI-1 02A, 58496

Orbit data source: Space-Track

XINGCHI-1 02A, 58496 is a payload satellite owned by Tuoyuan Shikong (CN) in SSO that was launched on Mon, 04 Dec 2023 UTC via a CHANG ZHENG 2C launch vehicle from the Jiuquan Satellite Launch Center, China (JSC). Payload-class satellites include a variety of spacecraft equipped with specific instruments for various scientific and technological missions. These include communications satellites like Starlink; space stations such as the ISS; scientific satellites like the Hubble; Earth observation satellites from companies like Planet Labs, Umbra, and HawkEye 360; GPS; miniature CubeSats for education and research; and military/defense satellites.

Loading next visibility...
Identifier
58496, 2023-187A
Orbit
SSO
Country
Flag of CNCN / PRC
Related business
Manufacturer
Weina
Mission
Operational Commercial Imaging
Bus & Motor
MN35, Unknown motor
Mass
35 kg wet, 35 kg dry
Launch date (UTC)
2023-12-04 (3 years ago)
Launch vehicle
CHANG ZHENG 2C
Launch site
Jiuquan Satellite Launch Center, China (JSC)
Object type
Payload
Rocket body
Debris
Shape & HBR
Box + 2 Pan, 0.5 m
Radar Cross Section
0.195 m², Large (>1 m²)

Expand to show TLE details & history
Last TLE update: 15 hours ago

TLE from 15 hours ago
0 XINGCHI-1 02A
1 58496U 23187A   26172.51983194  .00001020  00000-0  12797-3 0  9993
2 58496  97.9267 255.3433 0012741 127.2877 232.9501 14.84279417137761
Epoch: 2026-06-21T12:28Z
TLE epoch observation values (Epoch: 2026-06-21T12:28:33.479Z)
Latitude
-0.00001°
Longitude
158.48488°
Altitude
624.252 km
Speed
7.544 km/s
True Right ascension
17h 01m 22s
True Declination
0° 00' 00"
Sunlit
Object was in full shadow at epoch
Visualization orbit readout
Latitude
Unknown
Longitude
Unknown
Altitude
Unknown
Speed
Unknown
Apparent Right ascension
Unknown
Apparent Declination
Unknown
Sunlit
N/A
Visualization observer readout
Local Sidereal Time
14:24:28
Azimuth
Unknown
Elevation
Unknown
Doppler factor
Unknown
Orbital elements
Apogee altitude
621.792 km
Perigee altitude
603.978 km
Semi-major axis
6,991.022 km
Eccentricity
0.00127
Inclination
97.9267°
RAAN
255.3433°
Arg. of periapsis
127.2877°
True anomaly
232.83369°
Mean anomaly
232.9501°
Eccentric anomaly
232.89188°
Mean motion
3.71306 °/min
Orbital period
96.96 mins
BSTAR
0.00012797
Loading maneuver chart data...
Computing Atmospheric mass density...
Loading historical data...
Loading historical data...
Loading historical data...
Loading historical data...
Loading historical data...
Loading historical data...
Loading historical data...
Other satellites on launch #187 in the year 2023 (2023-12-04 UTC)

Documentation

Showing up to 5 results
|